N8TWM-13 Weather Reports


time (UTC)temp
C
wind
direction
speed
KPH
gust
KPH
rain 1hr
cm
rain 24hr
cm
rain mn
cm
humidity
%
barometer
mb
20260504011235 10 248 1.6 3.2 0.00 0.00 0.00 69 1013.5
20260504010731 10 212 1.6 9.7 0.00 0.00 0.00 69 1013.3
20260504010227 10 242 0.0 0.0 0.00 0.00 0.00 68 1013.3
20260504005724 10 259 0.0 0.0 0.00 0.00 0.00 68 1013.4
20260504005221 10 193 0.0 0.0 0.00 0.00 0.00 67 1013.5
20260504004719 10 232 0.0 0.0 0.00 0.00 0.00 67 1013.4
20260504004215 10 221 1.6 9.7 0.00 0.00 0.00 66 1013.4
20260504003712 10 266 4.8 4.8 0.00 0.00 0.00 66 1013.1
20260504003209 10 221 0.0 4.8 0.00 0.00 0.00 65 1013.3
20260504002706 10 236 3.2 4.8 0.00 0.00 0.00 64 1013.1
20260504002203 11 290 4.8 9.7 0.00 0.00 0.00 63 1013.1
20260504001701 11 263 11.3 17.7 0.00 0.00 0.00 62 1013.1
20260504001157 11 251 0.0 0.0 0.00 0.00 0.00 60 1013.1
20260504000654 12 264 1.6 4.8 0.00 0.00 0.00 56 1013.1
20260504000151 13 291 6.4 8.0 0.00 0.00 0.00 47 1012.9
20260503235649 13 265 8.0 11.3 0.00 0.00 0.00 48 1012.6
20260503235145 13 206 1.6 4.8 0.00 0.00 0.00 46 1012.5
20260503234644 13 233 3.2 4.8 0.00 0.00 0.00 45 1012.7
20260503234142 13 203 4.8 8.0 0.00 0.00 0.00 45 1012.8
20260503233638 13 240 3.2 8.0 0.00 0.00 0.00 45 1012.7
20260503233134 13 254 3.2 8.0 0.00 0.00 0.00 45 1012.9
20260503232631 13 252 6.4 9.7 0.00 0.00 0.00 45 1012.9
20260503232128 13 230 4.8 8.0 0.00 0.00 0.00 45 1012.7
20260503231626 13 242 0.0 0.0 0.00 0.00 0.00 46 1012.7
20260503231122 13 232 0.0 1.6 0.00 0.00 0.00 44 1012.8
20260503230619 13 241 4.8 4.8 0.00 0.00 0.00 44 1012.8
20260503230117 14 263 0.0 0.0 0.00 0.00 0.00 46 1012.8
20260503225614 14 212 1.6 3.2 0.00 0.00 0.00 46 1012.7
20260503225113 14 200 9.7 12.9 0.00 0.00 0.00 44 1012.7
20260503224611 14 282 0.0 0.0 0.00 0.00 0.00 44 1013.0
20260503224109 14 255 4.8 8.0 0.00 0.00 0.00 44 1013.0
20260503223607 14 234 0.0 0.0 0.00 0.00 0.00 45 1012.8
20260503223102 14 255 1.6 1.6 0.00 0.00 0.00 44 1013.2
20260503222600 14 231 6.4 9.7 0.00 0.00 0.00 43 1013.2
20260503222058 14 222 6.4 9.7 0.00 0.00 0.00 43 1013.1
20260503221556 14 218 1.6 1.6 0.00 0.00 0.00 46 1013.1
20260503221053 14 240 1.6 3.2 0.00 0.00 0.00 45 1013.3
20260503220549 14 253 3.2 4.8 0.00 0.00 0.00 45 1013.1
20260503220046 14 241 0.0 0.0 0.00 0.00 0.00 43 1013.3
20260503215543 14 240 0.0 0.0 0.00 0.00 0.00 44 1013.0
20260503215040 14 228 4.8 4.8 0.00 0.00 0.00 44 1013.2
20260503214539 15 230 3.2 4.8 0.00 0.00 0.00 43 1013.4
20260503214035 15 237 0.0 0.0 0.00 0.00 0.00 44 1013.3
20260503213533 15 234 1.6 3.2 0.00 0.00 0.00 43 1013.2
20260503213030 15 246 1.6 3.2 0.00 0.00 0.00 42 1013.3
20260503212527 15 278 8.0 11.3 0.00 0.00 0.00 42 1013.2
20260503212024 15 240 0.0 0.0 0.00 0.00 0.00 43 1013.4
20260503211521 15 174 6.4 12.9 0.00 0.00 0.00 42 1013.3
20260503211017 14 263 3.2 4.8 0.00 0.00 0.00 43 1013.5
20260503210514 14 232 4.8 4.8 0.00 0.00 0.00 43 1013.4
20260503210009 15 250 4.8 9.7 0.00 0.00 0.00 43 1013.6
20260503205506 15 297 3.2 9.7 0.00 0.00 0.00 43 1013.4
20260503205003 15 252 9.7 20.9 0.00 0.00 0.00 42 1013.4
20260503204500 15 244 3.2 9.7 0.00 0.00 0.00 42 1013.4
20260503203956 15 244 4.8 8.0 0.00 0.00 0.00 43 1013.3
20260503203454 15 219 4.8 8.0 0.00 0.00 0.00 43 1013.7
20260503202950 15 220 1.6 3.2 0.00 0.00 0.00 44 1013.5
20260503202449 15 234 6.4 11.3 0.00 0.00 0.00 42 1013.8
20260503201947 14 221 11.3 16.1 0.00 0.00 0.00 44 1013.6
20260503201444 15 274 0.0 3.2 0.00 0.00 0.00 41 1013.8
20260503200941 16 245 0.0 0.0 0.00 0.00 0.00 41 1013.8
20260503200437 15 235 3.2 3.2 0.00 0.00 0.00 43 1013.8
20260503195934 15 271 0.0 0.0 0.00 0.00 0.00 43 1014.1
20260503195432 15 257 1.6 1.6 0.00 0.00 0.00 43 1014.2
20260503194928 15 228 1.6 4.8 0.00 0.00 0.00 44 1014.0
20260503194425 15 207 1.6 8.0 0.00 0.00 0.00 42 1013.8
20260503193920 15 210 4.8 8.0 0.00 0.00 0.00 44 1014.2
20260503193416 15 200 0.0 0.0 0.00 0.00 0.00 43 1014.1
20260503192912 15 218 6.4 11.3 0.00 0.00 0.00 42 1014.6
20260503192408 15 182 0.0 0.0 0.00 0.00 0.00 44 1014.5
20260503191904 15 255 0.0 0.0 0.00 0.00 0.00 43 1014.6
20260503191402 15 221 3.2 9.7 0.00 0.00 0.00 43 1014.7
20260503190858 15 216 0.0 1.6 0.00 0.00 0.00 42 1015.0
20260503190355 15 180 3.2 8.0 0.00 0.00 0.00 42 1014.8
20260503185852 15 225 1.6 4.8 0.00 0.00 0.00 42 1015.0
20260503185349 14 262 4.8 14.5 0.00 0.00 0.00 41 1015.2
20260503184848 16 229 0.0 0.0 0.00 0.00 0.00 42 1015.1
20260503184344 15 253 1.6 1.6 0.00 0.00 0.00 39 1015.0
20260503183840 15 214 4.8 8.0 0.00 0.00 0.00 40 1015.3
20260503183338 14 228 1.6 4.8 0.00 0.00 0.00 42 1015.2
20260503182835 14 235 0.0 0.0 0.00 0.00 0.00 43 1015.2
20260503182334 14 255 1.6 9.7 0.00 0.00 0.00 42 1015.3
20260503181831 15 288 3.2 8.0 0.00 0.00 0.00 42 1015.5
20260503181328 14 220 3.2 14.5 0.00 0.00 0.00 44 1015.4
20260503180824 14 244 4.8 4.8 0.00 0.00 0.00 46 1015.5
20260503180322 15 214 4.8 9.7 0.00 0.00 0.00 43 1015.4
20260503175818 15 135 1.6 8.0 0.00 0.00 0.00 48 1015.4
20260503175316 14 220 0.0 0.0 0.00 0.00 0.00 46 1015.6
20260503174812 15 267 1.6 3.2 0.00 0.00 0.00 44 1015.8
20260503174310 15 216 0.0 1.6 0.00 0.00 0.00 44 1015.6
20260503173805 15 223 1.6 8.0 0.00 0.00 0.00 49 1015.9
20260503173302 15 189 3.2 3.2 0.00 0.00 0.00 44 1016.0
20260503172759 14 237 0.0 0.0 0.00 0.00 0.00 47 1015.8
20260503172256 13 220 0.0 0.0 0.00 0.00 0.00 46 1016.0
20260503171752 13 247 0.0 0.0 0.00 0.00 0.00 47 1016.1
20260503171249 13 244 0.0 4.8 0.00 0.00 0.00 46 1016.2
20260503170746 13 267 6.4 12.9 0.00 0.00 0.00 47 1016.3
20260503170243 13 223 1.6 3.2 0.00 0.00 0.00 48 1016.2
20260503160205 12 247 0.0 0.0 0.00 0.00 0.00 52 1016.6
20260503150635 11 281 0.0 0.0 0.00 0.00 0.00 53 1017.1
20260503150131 11 236 3.2 8.0 0.00 0.00 0.00 52 1017.0
20260503131025 8 231 1.6 1.6 0.00 0.00 0.00 56 1017.2
20260503130522 8 233 1.6 3.2 0.00 0.00 0.00 56 1017.6
20260503110413 2 258 0.0 0.0 0.00 0.00 0.00 81 1017.1
20260503090304 1 252 0.0 0.0 0.00 0.00 0.00 80 1016.6
20260503081231 1 251 0.0 0.0 0.00 0.00 0.00 83 1016.5
20260503080727 1 251 0.0 0.0 0.00 0.00 0.00 83 1016.5
20260503080224 1 251 0.0 0.0 0.00 0.00 0.00 83 1016.6
20260503072701 1 251 0.0 0.0 0.00 0.00 0.00 83 1016.9
20260503072157 1 251 0.0 0.0 0.00 0.00 0.00 83 1016.6
20260503071654 1 251 0.0 0.0 0.00 0.00 0.00 83 1017.0
20260503071151 1 251 0.0 0.0 0.00 0.00 0.00 83 1016.9
20260503070648 1 250 0.0 0.0 0.00 0.00 0.00 83 1016.9
20260503070146 1 250 0.0 0.0 0.00 0.00 0.00 83 1016.6
20260503060110 2 250 0.0 0.0 0.00 0.00 0.00 86 1017.1
20260503055102 2 250 0.0 0.0 0.00 0.00 0.00 86 1017.1
20260503054557 2 250 0.0 0.0 0.00 0.00 0.00 86 1017.1
20260503054055 2 250 0.0 0.0 0.00 0.00 0.00 86 1017.3
20260503053553 2 250 0.0 0.0 0.00 0.00 0.00 86 1016.9
20260503053050 2 250 0.0 0.0 0.00 0.00 0.00 85 1016.9
20260503052547 2 250 0.0 0.0 0.00 0.00 0.00 85 1017.1
20260503052043 2 249 0.0 0.0 0.00 0.00 0.00 85 1016.9
20260503051539 3 249 0.0 0.0 0.00 0.00 0.00 85 1017.1
20260503051037 3 249 0.0 0.0 0.00 0.00 0.00 84 1017.2
20260503050532 3 249 0.0 0.0 0.00 0.00 0.00 85 1017.2
20260503050030 3 249 1.6 1.6 0.00 0.00 0.00 85 1017.2
20260503045527 3 249 0.0 0.0 0.00 0.00 0.00 85 1017.1
20260503045024 3 248 0.0 0.0 0.00 0.00 0.00 85 1017.0
20260503044521 3 248 0.0 0.0 0.00 0.00 0.00 85 1017.0
20260503044019 3 248 0.0 0.0 0.00 0.00 0.00 85 1016.9
20260503043514 3 248 0.0 0.0 0.00 0.00 0.00 84 1017.0
20260503043011 3 249 0.0 0.0 0.00 0.00 0.00 84 1016.9
20260503042508 3 249 0.0 0.0 0.00 0.00 0.00 84 1017.0
20260503042004 3 249 0.0 0.0 0.00 0.00 0.00 84 1016.9
20260503041501 3 249 0.0 0.0 0.00 0.00 0.00 83 1017.2
20260503040959 3 250 0.0 0.0 0.00 0.00 0.00 83 1017.2
20260503040456 3 250 0.0 0.0 0.00 0.00 0.00 83 1016.9
20260503035953 3 240 0.0 0.0 0.00 0.08 0.08 83 1017.1
20260503035450 3 240 0.0 0.0 0.00 0.08 0.08 83 1017.2
20260503034948 3 240 0.0 0.0 0.00 0.08 0.08 83 1017.2
20260503034445 3 240 0.0 0.0 0.00 0.08 0.08 82 1017.1
20260503033942 3 240 0.0 0.0 0.00 0.08 0.08 82 1017.1
20260503033439 3 240 0.0 0.0 0.00 0.08 0.08 82 1017.4
20260503032937 3 240 0.0 0.0 0.00 0.08 0.08 81 1017.4
20260503032435 3 240 0.0 0.0 0.00 0.08 0.08 81 1017.3
20260503031932 3 240 0.0 0.0 0.00 0.08 0.08 81 1017.2
20260503031430 3 240 0.0 0.0 0.00 0.08 0.08 82 1017.2
20260503030927 3 240 0.0 0.0 0.00 0.08 0.08 83 1017.3
20260503030423 3 240 0.0 0.0 0.00 0.08 0.08 83 1017.2
20260503025920 3 240 0.0 0.0 0.00 0.08 0.08 83 1017.2
20260503025417 3 240 0.0 0.0 0.00 0.08 0.08 83 1017.4
20260503024914 3 239 0.0 1.6 0.00 0.08 0.08 82 1017.6
20260503024411 3 241 0.0 0.0 0.00 0.08 0.08 82 1017.5
20260503023908 3 241 0.0 0.0 0.00 0.08 0.08 82 1017.3
20260503023405 3 241 0.0 0.0 0.00 0.08 0.08 82 1017.5
20260503022901 3 241 0.0 0.0 0.00 0.08 0.08 82 1017.4
20260503022356 3 241 0.0 0.0 0.00 0.08 0.08 83 1017.5
20260503021853 3 241 0.0 0.0 0.00 0.08 0.08 83 1017.5
20260503021349 3 241 0.0 0.0 0.00 0.08 0.08 84 1017.5
20260503020846 3 241 0.0 0.0 0.00 0.08 0.08 84 1017.7
20260503020344 3 241 0.0 0.0 0.00 0.08 0.08 85 1017.4
20260503015840 3 241 0.0 0.0 0.00 0.08 0.08 84 1017.6
20260503015337 4 241 0.0 0.0 0.00 0.08 0.08 84 1017.5
20260503014833 3 241 0.0 0.0 0.00 0.08 0.08 81 1017.3
20260503014331 3 241 0.0 0.0 0.00 0.08 0.08 81 1017.1
20260503013828 3 241 0.0 0.0 0.00 0.08 0.08 81 1017.4
20260503013325 4 241 0.0 0.0 0.00 0.08 0.08 82 1017.4
20260503012822 4 241 0.0 0.0 0.00 0.08 0.08 82 1017.4
20260503012320 4 241 0.0 0.0 0.00 0.08 0.08 83 1017.4
20260503011816 4 241 0.0 0.0 0.00 0.08 0.08 82 1017.4
20260503011313 4 241 0.0 0.0 0.00 0.08 0.08 81 1017.4